sat.trackr.live / text

‹ back to catalog

DIRECTV 14

NORAD 40333 · 2014-078B

PAYLOAD ACTIVE UNKNOWN

§ Identity

Operator
Country
US
Launch date
2014-12-06
Launch site
FRGUI
Launch vehicle
Mass (kg)
RCS (m²)
34.13

Purposes: comms

External: N2YO · Heavens-Above · Gunter

§ Orbital elements

Epoch: 2026-09-14T21:53:04.765344Z

Period
1,436.08 min
Inclination
0.0148°
Eccentricity
0.0000748
Mean motion
1.00273021 rev/d
Perigee alt
35,783.1 km
Apogee alt
35,789.4 km
Semi-major
42,164.4 km
B*
0.0000e+0
RAAN
84.8979°
Arg perigee
1.9538°
Mean anomaly
136.0621°
Rev number
4,294

§ Raw data

DIRECTV 141 40333U 14078B   26257.91186071 -.00000133  00000+0  00000+0 0  99942 40333   0.0148  84.8979 0000748   1.9538 136.0621  1.00273021 42942

JSON: /api/v1/satellites/40333 · /tle

For live sub-satellite position, see the globe view (requires WebGL).

§ Visibility from observer

Set your observer location to see the next 7 days of passes ≥ 10°. The values pass through the URL so the page stays shareable.

No JS? Fill the form by hand. The geolocation button needs JavaScript.